Weather History for KCQX - December, 2013

Change the Weather History Date:

Thursday, December 12, 2013

  Actual Average Record
Temperature  
Mean Temperature 23 °F -  
Max Temperature 28 °F - - ()
Min Temperature 18 °F - - ()
Degree Days  
Heating Degree Days 42    
Moisture  
Dew Point 8 °F    
Average Humidity 51    
Maximum Humidity 66    
Minimum Humidity 37    
Precipitation  
Precipitation 0.00 in - - ()
Sea Level Pressure  
Sea Level Pressure 30.20 in    
Wind  
Wind Speed 6 mph (WNW)    
Max Wind Speed 12 mph    
Max Gust Speed 24 mph    
Visibility 10 miles    
Events      
T = Trace of Precipitation, MM = Missing Value Source: NWS Daily Summary

Daily Weather History Graph

Daily Weather History Graph

Search for Another Location

Airport or City:

Trip Planner

Search our weather history database for the weather conditions in past years. The results will help you decide how hot, cold, wet, or windy it might be!

Date:

Astronomy

Dec. 12, 2013 Rise Set
Actual Time 6:57 AM EST 4:09 PM EST
Civil Twilight 6:26 AM EST 4:41 PM EST
Nautical Twilight 5:51 AM EST 5:16 PM EST
Astronomical Twilight 5:17 AM EST 5:49 PM EST
Moon 1:17 PM EST (12/12) 2:14 AM EST (12/12)
Length of Visible Light 10h 14m
Length of Day
9h 11m
Waxing Gibbous, 80% of the Moon is Illuminated
Dec 12
Waxing Gibbous
Dec 17
Full
Dec 25
Last Quarter
Jan 1
New
Jan 7
First Quarter

Hourly Weather History & Observations

Time (EST) Temp. Windchill Dew Point Humidity Pressure Visibility Wind Dir Wind Speed Gust Speed Precip Events Conditions
12:52 AM 28.0 °F 22.8 °F 16.0 °F 61% 30.16 in 10.0 mi Variable 4.6 mph - N/A   Overcast
1:52 AM 28.0 °F 20.8 °F 15.1 °F 58% 30.16 in 10.0 mi Variable 6.9 mph - N/A   Clear
2:52 AM 28.0 °F 21.7 °F 16.0 °F 61% 30.17 in 10.0 mi Variable 5.8 mph - N/A   Clear
3:52 AM 27.0 °F 19.5 °F 16.0 °F 63% 30.17 in 10.0 mi WNW 6.9 mph - N/A   Clear
4:52 AM 27.0 °F 20.5 °F 17.1 °F 66% 30.17 in 10.0 mi Variable 5.8 mph - N/A   Partly Cloudy
5:52 AM 27.0 °F 18.0 °F 17.1 °F 66% 30.19 in 10.0 mi NW 9.2 mph - N/A   Clear
6:52 AM 26.1 °F 20.5 °F 14.0 °F 60% 30.21 in 10.0 mi Variable 4.6 mph - N/A   Scattered Clouds
7:52 AM 27.0 °F 18.7 °F 10.9 °F 51% 30.23 in 10.0 mi NW 8.1 mph - N/A   Overcast
8:52 AM 27.0 °F 17.3 °F 10.0 °F 49% 30.25 in 10.0 mi NW 10.4 mph 19.6 mph N/A   Overcast
9:52 AM 27.0 °F 17.3 °F 10.9 °F 51% 30.25 in 10.0 mi NW 10.4 mph 21.9 mph N/A   Partly Cloudy
10:52 AM 28.0 °F 18.1 °F 5.0 °F 38% 30.24 in 10.0 mi NW 11.5 mph 24.2 mph N/A   Partly Cloudy
11:52 AM 27.0 °F 17.3 °F 3.9 °F 37% 30.22 in 10.0 mi NNW 10.4 mph 19.6 mph N/A   Mostly Cloudy
12:52 PM 27.0 °F 17.3 °F 5.0 °F 39% 30.20 in 10.0 mi WNW 10.4 mph 23.0 mph N/A   Scattered Clouds
1:52 PM 26.1 °F 15.6 °F 5.0 °F 41% 30.20 in 10.0 mi NW 11.5 mph 19.6 mph N/A   Mostly Cloudy
2:52 PM 26.1 °F 17.6 °F 3.9 °F 39% 30.21 in 10.0 mi NW 8.1 mph - N/A   Mostly Cloudy
3:52 PM 25.0 °F 20.7 °F 3.0 °F 39% 30.21 in 10.0 mi Variable 3.5 mph - N/A   Partly Cloudy
4:52 PM 23.0 °F - 3.0 °F 42% 30.22 in 10.0 mi Calm Calm - N/A   Mostly Cloudy
5:52 PM 19.0 °F 13.9 °F 3.9 °F 52% 30.22 in 10.0 mi West 3.5 mph - N/A   Clear
6:52 PM 19.0 °F - 1.9 °F 47% 30.21 in 10.0 mi Calm Calm - N/A   Clear
7:52 PM 18.0 °F 12.7 °F 3.0 °F 52% 30.21 in 10.0 mi West 3.5 mph - N/A   Clear
8:52 PM 19.9 °F 13.4 °F 3.0 °F 48% 30.21 in 10.0 mi West 4.6 mph - N/A   Clear
9:52 PM 19.0 °F 13.9 °F 3.0 °F 50% 30.18 in 10.0 mi Variable 3.5 mph - N/A   Clear
10:52 PM 18.0 °F 12.7 °F 3.0 °F 52% 30.17 in 10.0 mi West 3.5 mph - N/A   Partly Cloudy
11:52 PM 18.0 °F 12.7 °F 3.0 °F 52% 30.13 in 10.0 mi WSW 3.5 mph - N/A   Clear